Starlink 32658

operational
NORAD ID: 62999 Int'l Des: 2025-031 Owner: SPXS Country: US Constellation: starlink
LEOCIRCULAR

Starlink 32658について

説明を読み込み中...

リアルタイム位置

3D地球を読み込み中...

次回通過

高度履歴

Altitude vs Time

uPlot chart will show altitude changes over time

軌道要素

1 62999U 25031U 25350.43165867 .00026442 00000-0 96646-3 0 9993
2 62999 42.9989 253.3860 0000668 298.5144 61.5640 15.27596954 48364
Epoch: Dec 16, 2025 • Age: 23 hours

現在のステータス

高度 489.8 km
速度 7.62 km/s
衛星直下点 -27.29°S, 124.34°W
打ち上げ日 Feb 11, 2025
運用期間 0.8 years
タイプ internet

技術仕様

分類 Payload
質量 730.00 kg
乾燥質量 700.00 kg
総質量 730.00 kg
長さ 0.30 m
直径 4.10 m
スパン 29.00 m
形状 Box + pan
製造者 SPXS
バスタイプ Starlink V2M
フェーズステータス In Orbit
所有者/国 SPXS/US

大規模コンステレーション

Loading constellations...